Tracking 18843 objects as of 20-November-2017
HD Live streaming from Space Station
objects crossing your sky now

SL-16 DEB

Track SL-16 DEB now!
10-day predictions


NORAD ID: 24300
Int'l Code: 1996-051D
Perigee: 846.4 km
Apogee: 1,138.3 km
Inclination: 71.0 °
Period: 104.8 minutes
Semi major axis: 7363 km
RCS: 0.0855 m2 (small)
Launch date: September 4, 1996
Source: Commonwealth of Independent States (former USSR) (CIS)
Launch site: TYURATAM MISSILE AND SPACE COMPLEX (TTMTR)

Note: This is SATELLITE DEBRIS
aabbcc
Your satellite tracking list
Your tracking list is empty




NASA's NSSDC Master Catalog

Two Line Element Set (TLE):
1 24300U 96051D   17323.90881567 -.00000006 +00000-0 +34232-4 0  9995
2 24300 071.0285 129.9532 0198201 230.1775 247.1569 13.74001962063096
Source of the keplerian elements: AFSPC